,

(GMT )
Al Udeid

Weather History for KQIR - March, 2013

Change the Weather History Date:

Sunday, March 24, 2013

  Actual Average Record
Temperature  
Mean Temperature 75 °F -  
Max Temperature 85 °F - - ()
Min Temperature 65 °F - - ()
Cooling Degree Days 10    
Growing Degree Days 25 (Base 50)    
Moisture  
Dew Point 59 °F    
Average Humidity 63    
Maximum Humidity 88    
Minimum Humidity 36    
Precipitation  
Precipitation 0.01 in - - ()
Sea Level Pressure  
Sea Level Pressure 29.87 in    
Wind  
Wind Speed 7 mph ()    
Max Wind Speed 16 mph    
Max Gust Speed 31 mph    
Visibility 6.2 miles    
Events Rain    
Averages and records for this station are not official NWS values.
T = Trace of Precipitation, MM = Missing Value Source: Averaged Metar Reports

Daily Weather History Graph

Daily Weather History Graph

Search for Another Location

Airport or City:

Trip Planner

Search our weather history database for the weather conditions in past years. The results will help you decide how hot, cold, wet, or windy it might be!

Date:

Astronomy

Mar. 24, 2013 Rise Set
Actual Time 5:34 AM +03 5:47 PM +03
Civil Twilight 5:11 AM +03 6:10 PM +03
Nautical Twilight 4:45 AM +03 6:37 PM +03
Astronomical Twilight 4:18 AM +03 7:04 PM +03
Moon 3:06 PM +03 (3/24) 3:14 AM +03 (3/24)
Length of Visible Light 12h 58m
Length of Day
12h 13m
Waxing Gibbous, 90% of the Moon is Illuminated
Mar 24
Waxing Gibbous
Mar 27
Full
Apr 3
Last Quarter
Apr 10
New
Apr 18
First Quarter

Hourly Weather History & Observations

Time (+03) Temp. Heat Index Dew Point Humidity Pressure Visibility Wind Dir Wind Speed Gust Speed Precip Events Conditions
12:01 AM 69.8 °F - 62.6 °F 78% 29.84 in 6.2 mi East 5.8 mph - N/A   Clear
12:55 AM 68.2 °F - 56.8 °F 67% 29.88 in 6.2 mi NNW 10.4 mph - 0.00 in   Mostly Cloudy
1:33 AM 68.0 °F - 57.2 °F 68% 29.88 in 6.2 mi WSW 16.1 mph 31.1 mph N/A Rain Light Rain
1:43 AM 68.0 °F - 59.0 °F 73% 29.89 in 6.2 mi West 11.5 mph - N/A   Mostly Cloudy
1:45 AM 68.0 °F - 59.0 °F 73% 29.89 in 6.2 mi West 12.7 mph - N/A   Mostly Cloudy
1:55 AM 66.9 °F - 59.5 °F 77% 29.88 in 6.2 mi West 8.1 mph - 0.00 in   Partly Cloudy
1:58 AM 66.2 °F - 59.0 °F 78% 29.88 in 6.2 mi West 10.4 mph - N/A Rain Light Rain
2:16 AM 66.2 °F - 60.8 °F 83% 29.86 in 6.2 mi WNW 6.9 mph - N/A   Clear
2:18 AM 66.2 °F - 60.8 °F 83% 29.86 in 6.2 mi WNW 6.9 mph - N/A   Light Drizzle
2:53 AM 66.2 °F - 62.6 °F 88% 29.82 in 6.2 mi SE 4.6 mph - N/A   Clear
2:55 AM 66.6 °F - 61.9 °F 85% 29.82 in 6.2 mi SSE 6.9 mph - 0.01 in   Clear
3:55 AM 66.6 °F - 59.7 °F 79% 29.81 in 6.2 mi South 12.7 mph - N/A   Clear
4:55 AM 65.5 °F - 59.5 °F 81% 29.80 in 6.2 mi South 9.2 mph - N/A   Clear
5:55 AM 67.5 °F - 58.1 °F 72% 29.85 in 6.2 mi SSE 6.9 mph - N/A   Clear
6:55 AM 68.4 °F - 59.2 °F 72% 29.85 in 6.2 mi ENE 4.6 mph - N/A   Clear
7:55 AM 71.4 °F - 60.6 °F 69% 29.88 in 6.2 mi ESE 3.5 mph - N/A   Clear
8:55 AM 72.9 °F - 62.1 °F 69% 29.90 in 6.2 mi Calm Calm - N/A   Partly Cloudy
9:55 AM 76.5 °F - 62.6 °F 62% 29.92 in 6.2 mi Calm Calm - N/A   Partly Cloudy
10:55 AM 78.3 °F - 62.2 °F 58% 29.93 in 6.2 mi Calm Calm - N/A   Partly Cloudy
11:55 AM 81.3 °F 82.2 °F 61.5 °F 51% 29.91 in 6.2 mi Calm Calm - N/A   Partly Cloudy
12:55 PM 82.2 °F 82.0 °F 57.7 °F 43% 29.89 in 6.2 mi Calm Calm - N/A   Partly Cloudy
1:55 PM 83.3 °F 82.8 °F 57.4 °F 41% 29.87 in 6.2 mi NW 5.8 mph - N/A   Clear
2:55 PM 84.6 °F 83.4 °F 55.9 °F 37% 29.85 in 6.2 mi Variable 6.9 mph - N/A   Clear
3:55 PM 85.3 °F 83.9 °F 55.2 °F 36% 29.84 in 6.2 mi NE 10.4 mph - N/A   Clear
4:55 PM 82.8 °F 82.7 °F 58.8 °F 44% 29.84 in 6.2 mi ENE 13.8 mph - N/A   Clear
5:55 PM 80.2 °F 80.4 °F 55.9 °F 43% 29.86 in 6.2 mi NE 12.7 mph - N/A   Clear
6:55 PM 78.3 °F - 50.7 °F 38% 29.88 in 6.2 mi NE 12.7 mph - N/A   Clear
7:55 PM 76.5 °F - 57.2 °F 51% 29.91 in 6.2 mi NE 9.2 mph - N/A   Clear
8:55 PM 75.2 °F - 55.6 °F 50% 29.91 in 6.2 mi NNE 9.2 mph - N/A   Clear
9:55 PM 74.1 °F - 54.3 °F 50% 29.91 in 6.2 mi NNE 6.9 mph - N/A   Clear
10:55 PM 73.4 °F - 55.2 °F 53% 29.91 in 6.2 mi NNE 8.1 mph - N/A   Clear
11:55 PM 72.9 °F - 55.9 °F 55% 29.91 in 6.2 mi NNE 5.8 mph - N/A   Clear